Hourly Data Report for August 14, 2004

TORONTO CITY
ONTARIO

43°40'00.000" N
79°24'00.000" W
112.50 m
6158355
71508
XTO

Download Data

Hourly Data (August 2004)
Hourly Data Report for August 14, 2004
TIME
LST
Temp Definition
°C
Dew Point Definition
°C
Rel Hum Definition
%
Precip. Amount Definition
mm

Wind Dir Definition
10's deg

Wind Spd Definition
km/h
Visibility Definition
km
Stn Press Definition
kPa
Hmdx Definition


Wind Chill Definition


Weather Definition


00:00 16.3 14.2 87   LegendMM LegendMM LegendMM 100.48     LegendNANA
01:00 16.2 14.3 89   LegendMM LegendMM LegendMM 100.46     LegendNANA
02:00 16.6 14.5 87   LegendMM LegendMM LegendMM 100.49     LegendNANA
03:00 16.3 14.1 87   LegendMM LegendMM LegendMM 100.53     LegendNANA
04:00 15.8 14.1 90   LegendMM LegendMM LegendMM 100.54     LegendNANA
05:00 15.6 13.9 90   LegendMM LegendMM LegendMM 100.59     LegendNANA
06:00 15.4 13.7 90   LegendMM LegendMM LegendMM 100.66     LegendNANA
07:00 15.8 13.7 87   LegendMM LegendMM LegendMM 100.70     LegendNANA
08:00 16.7 14.0 84   LegendMM LegendMM LegendMM 100.73     LegendNANA
09:00 18.6 14.0 75   LegendMM LegendMM LegendMM 100.78     LegendNANA
10:00 19.3 14.3 73   LegendMM LegendMM LegendMM 100.80     LegendNANA
11:00 20.6 14.0 66   LegendMM LegendMM LegendMM 100.83     LegendNANA
12:00 22.3 15.1 64   LegendMM LegendMM LegendMM 100.83 26   LegendNANA
13:00 21.8 13.8 60   LegendMM LegendMM LegendMM 100.84 25   LegendNANA
14:00 21.7 13.9 61   LegendMM LegendMM LegendMM 100.83 25   LegendNANA
15:00 21.1 14.0 64   LegendMM LegendMM LegendMM 100.80     LegendNANA
16:00 22.3 13.4 57   LegendMM LegendMM LegendMM 100.78 25   LegendNANA
17:00 20.9 12.8 60   LegendMM LegendMM LegendMM 100.82     LegendNANA
18:00 20.7 12.4 59   LegendMM LegendMM LegendMM 100.83     LegendNANA
19:00 20.1 12.4 61   LegendMM LegendMM LegendMM 100.85     LegendNANA
20:00 20.0 13.5 66   LegendMM LegendMM LegendMM 100.88     LegendNANA
21:00 20.0 13.9 68   LegendMM LegendMM LegendMM 100.92     LegendNANA
22:00 19.0 13.7 71   LegendMM LegendMM LegendMM 100.93     LegendNANA
23:00 18.8 13.3 70   LegendMM LegendMM LegendMM 100.95     LegendNANA

Notes on Data Quality.

Legend

  • E = Estimated
  • M = Missing
  • NA = Not Available*
  • [empty] = Indicates an unobserved value
Date modified: